Regional Weather Roundup
Issued by NWS

Home | Current Version | Previous Version | Text Only | Print | Product List | Glossary Off
Versions: 1 2 3 4 5 6 7 8 9 10 11 12 13 14 15 16 17 18 19 20 21 22 23 24 25 26 27 28 29 30 31 32 33 34 35 36 37 38 39 40 41 42 43 44 45 46 47 48 49 50

000
ASUS45 KABQ 030101
RWRNM
WEATHER ROUNDUP FOR NEW MEXICO
NATIONAL WEATHER SERVICE ALBUQUERQUE NM
600 PM MST MON MAR 02 2015

NOTE: "FAIR" MEANS FEW OR NO CLOUDS BELOW 12,000 FEET AGL WITH NO
       SIGNIFICANT WEATHER OR OBSTRUCTIONS TO VISION.

      THIS PRODUCT IS RELEASED AS TWO VERSIONS.  ONE VERSION NEAR
      THE TOP OF THE HOUR CONTAINING PRELIMINARY DATA FROM ALBUQUERQUE
      AND OTHER STATIONS.  A FINAL VERSION WITH ADDITIONAL DATA IS
      ISSUED ABOUT 10 MINUTES AFTER THE HOUR.

NMZ501-503-504-510>518-030200-
NORTHWEST PLATEAU/NORTHCENTRAL MOUNTAINS

CITY           SKY/WX    TMP DP  RH WIND       PRES   REMARKS
FARMINGTON     RAIN      36  34  92 W28G38    29.83R FOG     WCI  23
SANTA FE       CLOUDY    52  32  46 S21G32    29.84S
TAOS           CLOUDY    41  30  65 S10G16    29.83F
ANGEL FIRE     FAIR      41  30  64 SW20G28   29.85F

$$
NMZ402-403-502-505>509-030200-
WESTCENTRAL MOUNTAINS/SOUTHWEST MOUNTAINS

CITY           SKY/WX    TMP DP  RH WIND       PRES   REMARKS
GALLUP         FLURRIES  36  32  85 W20       29.89R WCI  25
SILVER CITY    CLOUDY    54  41  62 SW25G35   29.99R

$$
NMZ407-409-411-412-030200-
SOUTHERN DESERTS

CITY           SKY/WX    TMP DP  RH WIND       PRES   REMARKS
DEMING         CLOUDY    56  50  80 SW8       29.96S
HOLLOMAN AFB   MOCLDY    56  46  68 SW14      29.94S
ALAMOGORDO     CLOUDY    57  45  62 S16G23    29.96F
T OR C         CLOUDY    56  46  69 S20G26    29.90S

$$
NMZ519>523-030200-
CENTRAL VALLEYS/CENTRAL HIGHLANDS

CITY           SKY/WX    TMP DP  RH WIND       PRES   REMARKS
ALBUQUERQUE    CLOUDY    55  38  52 S29G36    29.84S
DOUBLE EAGLE   CLOUDY    52  37  58 S21G31    29.85S
MORIARTY ARPT  FAIR      50  37  59 S21G28    29.90R
CLINES CORNERS CLOUDY    47  37  68 SW28G38   29.90S
BELEN          MOCLDY    55  39  54 S24G31    29.86R
SOCORRO        NOT AVBL

$$
NMZ524>526-539-540-030200-
SOUTHCENTRAL MOUNTAINS

CITY           SKY/WX    TMP DP  RH WIND       PRES   REMARKS
RUIDOSO        NOT AVBL

$$
NMZ527>531-030200-
NORTHEAST HIGHLANDS/NORTHEAST PLAINS

CITY           SKY/WX    TMP DP  RH WIND       PRES   REMARKS
LAS VEGAS      FOG       30  30 100 S18       29.89F VSB<1/4 WCI  18
RATON          CLOUDY    30  29  96 CALM      29.84F
CLAYTON        CLOUDY    32  30  92 SW26G32   29.85F WCI  18

$$
NMZ532>537-030200-
EASTCENTRAL PLAINS

CITY           SKY/WX    TMP DP  RH WIND       PRES   REMARKS
TUCUMCARI      CLOUDY    37  33  85 SW15      29.94F WCI  28
CANNON AFB     CLOUDY    36  34  93 S10       29.99R WCI  28
CLOVIS AIRPORT CLOUDY    34  32  93 S13       29.98F WCI  25

$$
NMZ028-029-538-030200-
SOUTHEAST PLAINS

CITY           SKY/WX    TMP DP  RH WIND       PRES   REMARKS
ROSWELL        CLOUDY    39  34  82 S17       30.00S WCI  30
ARTESIA        CLOUDY    39  39 100 S9G16     30.06R WCI  33
CARLSBAD       CLOUDY    40  34  79 S12       30.05R WCI  33
HOBBS          PTCLDY    37  37 100 SE10      30.05R WCI  30


$$



USA.gov is the U.S. government's official web portal to all federal, state and local government web resources and services.